Location: Fairmont
(43.6520°N, 94.4610°W)
Time: 03:01:39
(UTC-06:00)

Daily predictions for brighter satellites

Satellite Brightness Start Highest point End
(mag) Time Altitude Azimuth Time Altitude Azimuth Time Altitude Azimuth
ADEOS Rocket 4.4 03:19:54 10° NNE 03:23:30 34° NNE 03:23:30 34° NNE
ADEOS II 3.7 03:36:41 10° NNE 03:40:44 32° E 03:40:44 32° E
CZ-4C R/B 4.0 04:06:47 20° SE 04:08:48 25° ESE 04:13:22 10° ENE
Cosmos 2369 Rocket 2.9 04:10:53 46° N 04:10:53 46° N 04:14:51 10° NNE
Cosmos 1867 4.4 04:21:42 40° N 04:21:42 40° N 04:25:31 10° NNE
IRAS Rocket 4.3 04:19:17 10° NNE 04:24:03 68° N 04:24:03 68° N
GEOS 3 Rocket 4.1 04:22:48 10° SE 04:26:26 48° SSE 04:26:26 48° SSE
IRS-1C Rocket 4.3 04:23:34 10° NNE 04:27:54 61° N 04:27:54 61° N
Cosmos 1833 4.1 04:31:27 51° NNW 04:32:56 84° ENE 04:38:33 10° SSE
Cosmos 1624 Rocket 4.2 04:38:26 57° NNW 04:38:26 57° NNW 04:42:57 10° NNE
ATLAS CENTAUR R/B 3.5 04:37:26 52° SW 04:37:52 53° SW 04:51:58 10° SSE
Okean O Rocket 3.5 04:33:42 10° N 04:35:07 20° N 04:35:07 20° N
Cosmos 2056 Rocket 3.6 04:40:01 58° NNW 04:40:01 58° NNW 04:44:27 10° NNE
ERS-2 4.0 04:38:23 10° NNE 04:40:04 25° NNE 04:40:04 25° NNE
Meteor 2-10 Rocket 3.9 04:40:23 16° S 04:44:20 58° E 04:49:19 10° NNE
ATLAS 5 CENTAUR R/B 2.0 04:46:07 59° NNW 04:46:07 59° NNW 04:50:56 10° NNE
Cosmos 1954 Rocket 4.2 04:41:40 10° NNW 04:47:00 70° ENE 04:52:18 10° SSE
Cosmos 972 Rocket 4.3 04:47:39 52° NW 04:47:39 52° NW 04:52:29 10° N
IRS-P2 Rocket 4.5 04:42:33 10° N 04:47:58 69° WNW 04:48:21 66° W
COSMO-SKYMED 1 4.3 04:47:42 10° SE 04:51:34 33° ENE 04:55:28 10° N
Cosmos 1943 Rocket 2.0 04:51:42 61° WSW 04:52:23 68° WNW 04:57:56 10° NNE
Lacrosse 5 rocket 3.4 04:52:40 15° N 04:53:39 17° NNE 04:56:06 10° ENE
Cosmos 2221 Rocket 4.0 04:52:13 10° S 04:56:43 64° E 05:01:15 10° NNE
Cosmos 2263 4.5 04:57:04 45° WNW 04:57:05 45° WNW 05:02:29 10° NNE
CZ-4B R/B 3.4 04:52:40 10° N 04:58:07 52° WNW 04:58:42 50° W
Lacrosse 5 1.8 04:58:26 61° W 04:59:05 70° NW 05:04:10 10° NE
Nadezhda 2 Rocket 4.4 04:57:59 10° NNW 05:03:57 59° W 05:09:57 10° S
USA 234 3.2 05:03:13 10° NE 05:09:47 84° NW 05:13:26 29° WSW
Abrixas 3.9 05:12:25 30° NNE 05:12:25 30° NNE 05:14:30 10° ENE
Okean 1-7 3.0 05:08:34 10° S 05:12:50 80° E 05:17:06 10° N
Thor Agena Rocket 3.4 05:08:09 10° S 05:13:22 77° WSW 05:18:34 10° NNW
Meteor 1-14 Rocket 4.1 05:09:31 10° NNW 05:15:22 78° W 05:21:02 10° S
Cosmos 1782 4.1 05:12:09 10° SSE 05:15:52 40° E 05:19:38 10° NNE
Cosmos 1452 Rocket 3.4 05:16:58 21° SSW 05:20:30 70° WNW 05:25:48 10° NNE
ADEOS II 2.7 05:16:25 10° N 05:21:07 34° WNW 05:21:42 33° W
Cosmos 1023 Rocket 4.4 05:16:26 10° NNW 05:21:41 77° WSW 05:26:56 10° SSE
Cosmos 1606 4.3 05:20:23 10° SSE 05:23:58 38° E 05:27:36 10° NNE
Cosmos 1745 Rocket 4.0 05:20:08 10° N 05:26:20 84° E 05:32:28 10° S
Cosmos 1782 Rocket 3.6 05:22:10 10° NNW 05:26:34 56° W 05:30:54 10° S
Cosmos 1417 Rocket 4.4 05:21:41 10° SSW 05:27:49 69° W 05:33:58 10° N
Cosmos 1741 Rocket 4.1 05:25:51 10° NNW 05:31:06 79° ENE 05:36:22 10° SSE
Tiangong 1 1.2 05:31:47 47° SSW 05:32:16 56° SSE 05:35:10 10° E
ATLAS 3B R/B 3.7 05:26:46 10° S 05:34:01 51° ESE 05:41:03 10° NE
Cosmos 407 Rocket 4.4 05:34:25 26° WSW 05:34:25 26° WSW 05:38:28 10° SSW
Okean-O 2.9 05:29:51 10° N 05:34:07 46° WNW 05:37:29 15° SW
Cosmos 2297 Rocket 4.0 05:29:44 10° N 05:34:42 30° NE 05:39:38 10° ESE
Meteor 1-26 Rocket 4.4 05:30:19 10° SSW 05:35:47 49° WNW 05:41:13 10° N
SKYMED 2 3.4 05:35:11 10° S 05:39:31 77° WSW 05:43:53 10° NNW
Meteor 1-31 Rocket 3.3 05:37:00 10° N 05:40:34 35° WNW 05:42:09 25° WSW
Meteor 1-25 Rocket 4.2 05:35:58 10° NNW 05:41:45 67° W 05:47:32 10° S
Cosmos 2219 3.2 05:43:57 10° NNW 05:49:31 57° WSW 05:55:01 10° S
USA 81 4.0 05:46:15 10° S 05:51:31 81° W 05:56:49 10° N
Okean 2 Rocket 3.5 05:48:12 10° NNW 05:52:18 39° W 05:56:23 10° SSW
Cosmos 1140 Rocket 3.8 05:47:28 10° NW 05:52:21 41° WSW 05:57:14 10° S
Cosmos 1674 Rocket 4.5 05:49:03 10° S 05:53:19 53° E 05:57:39 10° NNE
Cosmos 2369 Rocket 3.9 05:52:42 14° WNW 05:54:10 15° NW 05:57:21 10° N
Cosmos 2227 Rocket 3.0 05:49:25 10° NNW 05:55:00 53° ENE 06:00:32 10° SE
CZ-4 R/B 3.8 05:51:41 10° NE 05:55:16 27° E 05:58:48 10° SSE
CZ-4C R/B 2.4 05:52:01 13° SW 05:56:46 55° NW 06:02:46 10° NNE
Cosmos 1656 Rocket 4.0 05:51:27 10° SW 05:56:54 46° WNW 06:02:22 10° NNE
Cosmos 614 Rocket 4.2 05:54:07 10° NNW 05:58:59 47° WSW 06:03:53 10° S
CZ-2C R/B 4.0 05:56:16 10° NNE 06:00:51 39° E 06:05:34 10° SSE
Meteor 1-11 Rocket 4.2 05:57:17 10° N 06:03:15 70° ENE 06:09:07 10° SSE
Meteor 1-10 Rocket 4.2 06:01:29 10° SSW 06:07:01 70° WNW 06:12:41 10° N
Okean 1 Rocket 3.9 06:06:52 10° N 06:11:13 56° E 06:15:30 10° SSE
Cosmos 2151 Rocket 3.7 06:07:21 10° NNW 06:11:45 53° W 06:16:06 10° S
Cosmos 1607 4.0 06:06:09 10° SSW 06:12:16 84° ESE 06:18:29 10° NE
S3M 4.5 06:10:21 10° SW 06:16:13 39° WNW 06:22:03 10° N
PAYLOAD A 4.0 06:12:39 10° NNE 06:17:24 81° ESE 06:22:15 10° S
Cosmos 1633 2.5 06:16:37 10° NNW 06:20:15 69° W 06:23:50 10° S
BREEZE M DEB (TANK) 4.0 06:14:10 10° W 06:25:56 50° N 06:29:42 10° ENE
Cosmos 1536 3.3 06:22:16 10° N 06:26:16 66° E 06:30:15 10° SSE
COSMO-SKYMED 1 3.7 06:24:16 10° SSW 06:27:47 24° W 06:31:18 10° NW
SJ-12 4.2 06:26:03 10° NNE 06:30:11 78° ESE 06:34:18 10° S
Ariane Rocket 3.1 06:26:36 10° N 06:31:36 58° WNW 06:36:34 10° SSW
ATLAS 5 CENTAUR R/B 3.8 06:28:32 10° WNW 06:31:37 16° NNW 06:34:52 10° NNE
SL-24 R/B - RUBIN 2 4.4 06:26:48 10° NNW 06:33:02 81° NE 06:38:29 10° SE
Lacrosse 5 rocket 1.1 06:29:44 10° NW 06:33:21 81° NE 06:36:58 10° SE
Meteor 1-28 Rocket 4.4 06:32:15 10° SSW 06:35:12 22° W 06:38:12 10° NW
IDEFIX/ARIANE 42P 2.7 06:30:30 10° NNE 06:35:46 85° ESE 06:40:58 10° SSW
